Location: *
(35.1500°N, 76.6700°W)
Time: 09:37:55
(UTC+00:00)

OAO 3 Rocket - Pass Details

Date: 13 October 2019
Orbit: 630 x 682 km, 35.0° (Epoch: 14 November)

Event Time Altitude Azimuth Distance (km) Brightness Sun altitude
Rises 23:34:30 0° 247° (WSW) 3,011 8.0 -13.1°
Reaches altitude 10° 23:36:53 10° 244° (WSW) 2,103 6.9 -13.5°
Maximum altitude 23:41:46 62° 164° (SSE) 759 3.4 -14.5°
Enters shadow 23:44:35 25° 91° (E) 1,371 4.2 -15.1°
